Wind_Speed
17 23 25 24 25 26 25 26 26 26 27 28 30 30 28 28 28 28 30 29 27 26 24 23 22 20 19 18 17 17 16 16 15 14 14 14 14 16 15 13 14 15 14 14 13 12 11 9 9 8 7 8 8 7 5 5 6 5 4 4 3 3 3 6 5 4 5 5 6 6 6 5 3 2 5 8 9 7 8 8 7 9 9 9 12
16 19 22 25 26 26 25 26 28 27 28 30 30 31 29 28 29 27 29 29 28 28 26 24 23 21 20 18 17 17 17 17 16 15 14 14 15 17 16 14 15 16 15 15 13 13 13 11 10 10 9 9 8 7 7 6 6 5 5 5 5 5 4 5 6 5 6 7 7 6 6 6 4 3 6 8 11 9 8 8 7 9 11 10 10
16 18 20 24 26 27 27 26 29 29 29 30 30 31 30 29 30 28 29 30 28 28 27 25 23 21 20 19 17 17 17 17 16 15 15 14 15 17 17 16 16 16 16 16 15 13 13 12 12 11 10 9 8 8 8 8 8 7 7 6 5 5 5 4 6 7 5 5 7 4 3 4 1 3 7 8 13 14 10 10 8 9 11 10 10
16 18 19 22 25 27 27 26 29 29 29 31 31 32 31 30 32 31 30 31 29 29 28 25 23 21 19 18 18 16 16 17 16 16 16 15 15 17 17 17 17 17 16 16 16 15 14 14 14 14 12 10 10 10 9 9 8 8 7 6 6 5 6 5 5 7 4 1 4 1 2 4 1 4 8 9 11 14 12 12 10 9 10 7 8
17 19 19 20 23 26 28 27 29 29 29 32 33 33 32 31 33 32 30 31 30 29 28 26 23 22 20 18 18 16 15 18 17 16 17 17 17 18 18 18 18 17 17 17 16 16 16 16 15 14 13 12 12 11 10 9 8 8 8 7 7 5 6 6 5 5 3 2 3 1 1 3 1 6 7 7 6 4 8 12 10 12 11 7 8
17 19 19 19 20 24 27 28 29 30 30 32 34 33 33 33 34 34 31 30 30 29 29 28 25 24 23 20 19 18 16 18 20 18 17 19 18 18 19 19 19 18 17 17 17 16 16 16 15 14 14 13 12 11 9 8 8 8 7 7 7 5 5 7 7 5 3 2 2 1 0 1 1 8 5 2 3 4 7 15 11 13 14 8 7
17 18 19 19 20 21 25 29 31 32 32 33 33 33 33 33 35 35 33 31 30 30 30 29 27 25 24 22 20 20 18 18 21 20 18 19 19 18 19 20 19 19 18 18 18 18 17 17 17 15 14 13 12 11 9 9 8 8 7 7 7 6 6 6 7 8 7 5 4 2 3 2 0 4 1 1 1 4 5 12 12 15 14 9 8
17 18 19 19 20 21 26 32 34 33 33 33 33 34 34 35 36 36 34 32 31 31 32 30 28 27 25 24 21 21 20 18 20 21 18 18 19 18 19 20 20 20 19 19 19 19 17 18 18 16 15 13 12 10 10 10 9 8 8 8 7 7 7 6 5 7 10 8 6 5 4 1 0 1 2 4 2 1 0 3 9 15 13 10 9
19 19 20 17 16 19 24 30 31 31 32 34 35 35 36 36 37 37 35 34 33 32 34 32 29 28 27 25 23 21 21 19 18 20 19 18 19 20 19 20 22 21 20 20 20 20 19 19 18 18 16 14 12 11 10 10 9 9 9 9 9 8 8 7 5 6 9 8 10 9 5 2 3 3 1 5 3 2 1 1 4 10 10 11 8
18 20 19 16 16 19 22 25 26 27 30 33 34 34 35 36 37 37 36 35 34 34 35 34 31 29 28 27 24 22 22 21 19 19 20 19 19 20 20 20 22 23 21 21 21 21 20 19 18 18 17 15 14 12 10 11 10 10 10 10 10 9 9 8 6 6 5 6 12 13 8 4 6 5 3 5 3 2 1 3 6 8 8 11 8
17 19 18 17 20 23 23 24 27 28 30 31 32 33 34 35 37 38 36 36 36 36 36 36 33 31 30 28 26 24 23 22 21 21 22 22 20 20 20 20 21 22 22 21 22 21 21 21 19 17 16 15 15 14 12 11 10 11 11 10 10 9 10 9 7 7 4 4 9 12 11 7 7 7 6 7 6 4 4 5 6 6 6 13 12
16 16 16 16 18 20 21 24 29 30 31 33 34 34 35 36 38 38 37 36 37 37 37 37 35 33 31 30 28 27 25 24 23 22 23 23 22 20 21 21 20 20 21 21 22 21 21 22 20 18 17 16 16 15 14 12 11 11 11 11 11 11 11 10 8 8 6 6 8 10 11 9 8 9 9 6 6 7 6 3 2 2 3 11 12
17 16 16 16 15 14 16 23 28 30 33 35 36 35 35 36 39 40 38 38 38 38 39 38 37 35 33 32 30 29 27 26 25 24 24 24 23 21 21 22 22 21 21 22 22 22 22 23 22 20 19 18 17 16 15 14 12 12 12 12 13 13 13 12 11 9 8 9 9 9 11 11 10 10 10 8 6 6 4 2 1 2 3 10 12
16 16 15 15 16 15 17 23 28 32 35 37 37 37 36 36 39 41 40 40 39 39 40 39 38 36 34 33 31 30 29 28 27 26 25 24 25 24 23 23 24 24 23 23 22 22 23 24 24 22 21 19 18 17 16 15 14 13 13 13 13 14 14 13 12 11 10 11 11 10 11 11 12 12 10 10 9 9 8 5 2 2 2 8 12
14 14 14 13 16 17 19 23 28 33 36 36 37 37 36 37 40 42 41 41 40 39 39 39 38 37 35 34 32 31 31 29 29 28 27 26 25 26 25 24 24 25 25 24 23 23 23 24 24 24 22 21 20 19 18 16 16 15 14 14 14 14 15 14 13 13 12 13 13 13 12 11 12 13 12 12 11 10 12 11 7 3 3 4 8
17 15 15 16 16 16 19 23 27 32 35 35 36 36 36 37 40 42 42 42 42 40 39 39 38 37 36 36 33 32 31 30 29 29 28 28 27 26 27 26 24 24 25 25 24 24 24 25 25 24 23 22 21 21 20 18 18 18 17 16 15 14 15 15 14 14 14 14 14 15 14 13 12 12 13 13 12 9 11 14 13 9 6 2 4
19 18 19 18 16 14 17 20 24 31 36 37 37 38 39 38 38 40 41 41 43 42 41 40 39 38 38 37 35 33 33 31 30 30 30 29 28 27 27 27 26 24 24 25 24 25 24 25 25 23 23 23 22 22 22 20 19 19 19 19 18 16 16 17 16 15 15 15 16 16 17 17 13 11 12 13 12 10 10 12 13 13 10 4 3
19 20 20 20 17 15 19 24 29 36 39 39 38 37 37 37 37 39 39 39 41 41 41 41 41 39 39 39 38 36 35 33 31 31 31 30 29 29 27 27 27 26 24 23 23 25 25 25 25 24 23 23 23 22 23 22 21 20 20 20 20 18 17 18 18 16 16 16 16 17 18 20 15 11 12 12 12 13 12 10 11 13 12 9 5
15 17 18 18 18 18 24 31 33 38 39 37 36 35 33 34 35 37 39 40 40 40 39 40 41 39 39 41 41 39 36 34 32 31 31 31 30 30 28 27 27 27 26 24 23 24 26 26 26 25 24 24 24 24 23 23 22 22 21 20 21 20 19 19 19 18 17 17 18 17 19 21 18 13 13 13 12 15 16 13 11 12 13 13 10
14 16 18 17 18 20 27 32 31 34 37 35 35 35 34 33 34 35 36 37 38 37 37 38 38 37 39 41 41 40 38 36 34 32 32 32 31 31 30 28 27 27 27 27 25 25 25 26 26 26 25 25 25 25 24 24 24 23 22 20 21 22 21 21 20 19 18 18 19 19 19 22 22 18 16 16 14 14 17 16 15 14 14 14 14
15 16 19 19 18 19 23 27 25 28 33 35 35 36 35 34 34 35 35 35 36 36 36 37 37 37 38 39 40 40 39 37 34 33 33 33 32 31 30 29 28 27 27 28 28 27 26 27 27 26 26 25 26 26 25 25 26 25 23 21 21 23 24 22 21 20 20 20 20 21 20 21 22 21 19 19 17 15 17 18 17 16 17 16 16
16 17 19 19 17 16 17 22 22 26 32 34 35 35 35 34 34 35 35 35 36 36 37 38 38 37 37 38 39 40 39 37 35 34 34 33 32 32 31 29 28 28 28 28 29 30 28 27 27 28 28 27 27 28 27 26 27 27 25 23 22 23 25 24 23 23 22 21 21 22 22 21 21 23 22 21 20 18 18 20 19 19 19 18 18
16 18 19 17 15 15 17 21 25 29 32 34 33 34 36 36 35 34 35 36 37 36 36 38 38 37 37 38 38 38 38 37 35 34 34 33 31 32 32 31 29 28 29 29 29 30 30 29 29 28 29 29 28 29 29 28 28 28 28 26 24 24 26 26 25 25 25 24 23 24 24 23 22 23 23 22 21 20 20 21 21 21 21 20 19
15 16 15 14 14 14 15 17 22 27 29 31 33 33 34 35 35 35 36 37 37 35 35 36 36 36 36 38 38 37 36 36 35 34 33 33 31 30 31 32 30 27 28 30 29 30 30 31 30 30 30 31 30 31 31 30 30 30 30 29 27 26 27 28 28 27 27 27 26 26 26 26 24 24 25 24 22 22 22 22 22 22 22 21 20
13 12 14 15 14 13 13 13 16 22 25 29 31 31 32 34 35 35 35 35 36 35 34 35 35 35 35 36 37 36 35 36 36 34 33 33 32 30 30 31 31 29 28 29 30 30 31 32 33 32 31 32 32 32 33 32 31 31 31 31 30 28 28 28 29 29 29 29 28 28 28 28 27 26 26 26 25 24 23 23 23 23 23 23 21
12 11 13 14 13 13 13 11 13 20 23 25 28 30 31 32 34 34 33 34 35 35 34 34 34 35 35 35 35 35 35 35 36 34 33 33 32 30 30 30 31 31 30 29 31 32 32 33 34 34 33 33 33 33 33 33 32 31 31 31 30 30 30 30 30 30 30 31 31 30 30 30 30 29 28 28 27 26 25 24 24 24 24 24 23
10 10 11 12 11 13 15 13 16 22 24 24 27 30 29 29 32 32 32 33 34 34 35 34 34 34 35 35 35 36 36 35 36 35 33 33 33 32 31 31 31 31 31 30 31 33 34 34 34 35 34 34 34 34 34 34 33 31 31 31 30 30 30 30 30 30 31 31 32 31 31 31 32 32 31 30 29 28 27 26 25 25 24 24 24
7 6 9 11 8 10 14 14 16 21 24 24 27 29 29 28 30 31 31 32 33 34 34 34 34 34 35 36 36 37 38 37 37 37 36 34 34 33 33 32 32 32 32 31 31 31 33 34 34 35 35 34 34 35 34 34 35 33 31 31 31 30 30 30 30 30 30 31 31 31 31 32 33 33 33 32 31 30 29 28 27 26 25 25 25
8 7 9 10 6 7 11 12 14 18 21 23 24 27 28 27 28 30 31 31 32 33 33 33 34 34 35 37 36 36 38 39 37 37 38 37 35 35 35 34 33 32 32 32 31 31 31 33 34 34 35 35 35 36 36 36 36 35 33 32 31 31 30 29 29 29 30 31 31 30 31 32 33 34 35 35 33 32 32 31 30 29 28 27 26
10 8 9 9 7 7 9 9 10 13 17 20 22 23 26 27 27 29 31 30 31 32 33 33 34 35 34 35 36 36 37 38 38 38 39 39 37 36 35 35 35 34 33 32 32 31 31 32 33 33 34 35 35 36 38 39 39 38 36 33 32 32 31 30 30 30 30 31 31 31 31 32 33 34 36 37 36 35 34 34 33 33 32 30 28
13 10 9 9 8 6 7 9 10 11 14 18 19 20 24 27 27 28 30 30 30 31 34 34 33 33 33 34 35 35 35 37 39 38 38 39 38 37 35 35 36 35 34 34 33 33 32 31 32 33 34 35 36 36 38 41 42 41 39 36 33 32 32 33 32 31 32 32 33 33 32 32 34 35 37 38 39 38 37 36 34 34 34 34 32
15 13 11 11 11 10 10 11 12 13 15 16 17 19 22 25 26 27 28 29 30 30 33 35 33 31 33 34 35 35 34 35 37 38 38 38 39 38 36 35 36 36 35 34 34 35 35 33 32 33 34 34 36 37 39 41 44 44 43 40 36 34 33 34 34 34 34 33 33 34 34 33 35 37 38 39 41 41 40 38 36 35 35 35 35
9 11 12 13 13 13 13 12 13 16 17 17 19 20 20 22 23 25 27 29 30 29 31 34 34 33 34 35 34 34 34 35 36 37 36 36 37 38 37 36 36 36 36 36 36 36 36 36 34 33 35 35 35 36 39 42 44 46 46 43 39 36 35 35 36 36 35 35 35 35 34 34 35 37 39 41 42 42 42 40 38 36 35 36 37
2 3 5 6 6 9 9 8 11 17 20 20 21 20 20 21 21 23 26 28 29 28 28 32 35 34 34 35 34 34 34 34 33 34 34 34 35 37 38 36 34 34 36 37 37 36 37 38 37 35 35 36 36 36 38 42 45 47 48 47 43 39 38 37 37 38 37 37 37 36 36 37 36 36 39 41 42 43 43 42 41 39 38 37 37
3 2 4 6 8 6 4 3 2 7 15 21 21 20 20 22 22 22 24 25 27 27 25 28 34 35 33 34 35 34 33 32 31 32 33 33 35 36 36 35 33 34 36 37 36 37 36 37 39 37 35 35 36 38 39 41 45 47 49 50 47 42 39 39 39 39 39 39 39 38 38 38 37 36 38 41 42 43 43 43 43 43 42 39 39
3 5 8 7 7 6 5 5 4 4 4 13 18 19 20 21 22 23 24 23 23 25 25 25 30 34 33 33 34 33 32 32 31 31 32 34 34 34 35 35 33 32 33 34 35 36 36 35 36 37 36 35 34 36 39 41 44 46 48 50 50 45 40 39 39 38 38 39 39 40 39 39 38 38 39 41 43 42 42 42 43 43 43 41 40
6 11 11 10 9 7 5 4 3 5 6 7 10 16 20 21 21 21 22 23 22 24 26 25 26 31 33 32 33 32 31 31 31 31 32 34 33 33 33 34 33 31 30 32 33 33 34 34 34 36 38 38 36 35 37 40 42 44 47 50 51 46 41 39 38 38 39 39 40 41 41 39 39 39 40 42 43 43 41 40 41 41 40 39 40
11 12 12 13 11 8 6 5 5 6 8 8 8 10 13 19 21 21 21 22 23 23 26 26 25 28 32 32 32 32 31 31 31 31 31 32 32 31 31 32 33 32 31 30 30 31 32 33 34 35 37 39 37 35 35 37 39 42 46 50 51 47 42 40 38 37 37 39 40 42 42 41 41 41 41 42 43 44 42 38 38 39 37 37 39
12 13 12 10 7 6 7 7 7 7 7 8 9 11 10 11 17 20 20 21 23 23 24 26 24 25 29 31 31 31 31 31 32 31 29 30 30 29 29 31 32 32 31 29 28 28 29 31 32 34 35 36 36 34 34 35 36 38 43 48 48 44 42 41 38 36 36 37 38 40 43 45 45 42 41 41 43 45 43 40 38 36 34 37 41
12 13 11 8 6 5 6 6 4 5 6 7 7 9 11 9 10 16 19 20 23 24 23 24 24 23 26 31 31 31 31 30 30 29 28 28 29 28 28 29 29 28 28 28 27 27 27 28 29 30 31 33 33 32 32 34 35 37 41 45 45 43 42 40 36 34 35 35 36 37 40 44 47 44 42 41 42 45 46 42 38 36 36 39 40
11 10 9 8 8 7 6 6 7 8 7 8 7 7 9 10 9 11 16 18 21 23 23 24 25 24 25 29 29 29 29 27 26 27 27 26 27 27 26 26 25 25 26 27 27 26 25 26 26 28 29 30 31 31 32 34 36 36 38 42 44 43 40 37 33 33 34 34 36 36 35 38 42 45 45 43 43 46 48 46 42 41 42 42 39
10 8 9 9 8 7 7 6 8 10 11 10 9 9 8 9 9 9 11 13 15 21 25 25 26 25 24 26 27 26 26 25 24 24 25 25 25 25 25 25 24 23 24 25 26 26 25 24 25 26 27 27 28 29 31 34 35 35 36 39 43 44 40 35 32 32 33 34 35 35 34 35 37 41 45 46 45 46 48 49 48 46 45 42 38
9 8 11 11 8 7 8 8 9 11 12 12 12 11 9 7 7 7 8 8 8 16 24 25 26 27 24 24 26 25 23 22 22 24 24 24 24 24 24 24 24 23 23 23 24 24 24 23 23 23 24 25 25 26 29 32 33 34 34 35 39 42 41 37 34 33 34 34 35 35 35 35 35 36 41 46 48 47 48 51 51 49 44 41 37
9 9 12 11 8 7 8 9 10 10 8 9 12 12 8 4 4 6 5 5 4 9 19 22 23 25 23 22 24 24 22 22 22 23 23 22 22 23 22 23 23 23 21 20 21 22 22 21 21 20 20 22 22 23 25 29 32 33 33 33 36 39 41 41 40 37 36 36 35 34 34 33 34 35 38 43 47 49 50 52 52 49 43 39 37
10 11 13 12 10 7 8 8 9 9 7 8 10 9 4 3 6 7 3 3 4 4 13 16 18 20 20 19 20 21 21 22 21 21 22 20 19 20 20 20 21 21 20 18 17 18 19 19 18 18 18 18 19 19 21 24 28 31 33 33 35 38 40 44 45 43 41 39 37 34 31 30 30 31 33 37 44 50 53 52 51 50 45 40 39
11 11 12 12 10 8 8 7 8 10 10 9 9 8 8 7 7 6 5 5 5 2 8 11 12 14 15 16 16 18 19 20 20 19 19 19 19 18 18 18 18 18 18 18 16 16 17 16 16 16 16 15 16 18 18 17 19 26 32 35 36 37 39 42 46 47 46 44 41 38 35 33 32 31 29 31 38 46 51 52 51 52 49 44 40
10 11 11 10 9 7 7 6 8 11 12 11 10 10 11 9 6 4 2 2 3 1 7 9 9 11 13 14 14 16 17 18 19 19 18 19 19 18 17 17 17 16 16 16 15 14 13 14 15 16 17 17 18 17 12 6 3 9 19 25 31 36 39 41 45 49 49 46 43 42 42 41 39 37 33 29 31 38 46 49 51 53 53 49 47
8 9 10 9 7 6 6 7 8 8 9 9 9 10 10 10 9 8 5 1 2 2 5 8 8 10 12 13 14 15 15 16 17 16 15 16 18 17 17 16 16 16 16 15 16 15 14 14 12 10 9 10 9 5 0 5 6 5 2 6 12 19 26 33 39 44 48 46 40 37 37 36 34 33 32 30 31 37 43 47 50 54 56 57 54
8 7 7 7 7 5 5 6 6 6 6 7 7 8 8 8 9 11 11 4 5 6 6 8 9 9 11 12 12 12 13 15 16 12 9 9 10 12 14 14 11 10 11 11 12 10 8 6 4 4 5 5 6 7 6 6 7 7 5 3 5 8 12 18 23 28 35 38 35 32 32 31 28 28 31 34 35 38 40 44 48 52 55 54 52
7 6 5 5 5 5 5 5 5 5 6 8 8 8 8 8 6 5 8 8 3 4 6 9 8 7 10 13 13 13 13 13 16 19 18 17 15 12 14 15 14 11 9 8 8 9 8 8 9 8 7 7 7 6 6 7 9 11 10 8 8 9 12 16 19 21 25 28 28 30 32 31 29 29 32 34 35 35 36 38 42 47 50 50 48
5 4 4 4 4 4 5 5 4 4 5 7 7 7 7 9 8 5 4 6 8 7 6 7 6 6 9 8 8 13 14 8 10 20 22 22 23 21 18 16 14 12 12 11 11 11 9 8 9 8 6 5 5 4 6 8 10 11 13 14 14 13 13 15 18 21 23 23 24 26 29 30 31 33 35 38 38 38 38 38 39 42 46 47 46
Wind_Direction
176 182 191 190 184 184 182 180 182 178 174 176 173 179 183 176 177 176 173 176 176 177 180 181 182 182 184 187 187 190 194 198 203 200 197 203 198 193 199 197 194 194 193 196 198 196 191 195 214 210 197 210 220 223 233 236 224 205 202 212 200 207 183 156 165 171 150 147 165 162 150 169 179 162 181 161 147 148 152 158 148 139 135 131 141
175 181 187 189 186 184 183 181 184 181 176 177 176 179 184 180 179 176 173 177 177 178 182 183 184 183 183 187 187 188 192 194 201 202 198 202 199 194 197 196 194 196 196 197 199 201 197 196 210 212 202 211 224 226 227 223 216 203 202 213 198 200 202 165 174 183 173 181 181 161 152 165 174 185 207 185 158 154 159 165 151 135 143 144 136
179 182 184 188 186 184 186 184 185 185 180 179 178 179 183 182 181 180 177 178 180 181 184 186 185 184 183 187 189 188 190 193 198 200 201 202 197 194 195 195 196 197 198 198 199 202 202 201 210 218 212 208 220 229 230 223 218 212 207 209 194 194 206 177 186 205 204 174 159 148 149 149 141 219 232 216 168 165 172 159 140 123 131 142 138
182 182 185 187 186 187 188 185 185 186 182 180 180 179 183 184 181 182 181 181 183 183 185 188 186 185 185 188 193 192 189 191 198 200 201 203 198 195 196 197 198 199 199 199 200 203 204 205 209 218 215 205 213 226 228 224 219 213 205 206 201 190 192 185 194 215 243 79 123 199 193 144 93 227 240 241 181 169 172 154 136 135 128 114 124
182 182 187 187 188 189 185 183 185 186 184 182 181 181 183 184 181 183 183 183 185 184 185 186 184 184 186 189 194 199 192 187 195 201 200 202 201 196 198 200 199 200 201 201 202 204 207 209 207 213 217 210 213 223 223 219 220 215 201 201 204 185 181 186 185 205 234 80 94 348 195 125 141 193 218 248 219 191 163 150 138 141 131 97 104
184 183 187 189 190 188 181 183 188 188 187 184 183 183 183 183 182 183 184 183 184 185 183 184 184 183 185 188 190 198 198 186 192 201 199 200 203 200 197 199 199 200 203 204 204 205 210 210 205 210 217 217 217 219 221 216 218 216 199 197 204 192 181 185 179 168 167 168 138 42 234 4 171 181 196 244 259 330 129 148 152 143 135 122 122
185 187 189 188 189 190 183 184 190 191 188 185 184 184 183 182 182 182 183 183 184 185 183 183 184 184 186 189 190 195 199 193 193 201 202 199 203 203 196 196 201 201 202 205 205 207 211 209 208 210 213 220 221 212 213 217 216 215 203 197 199 193 182 194 192 158 155 202 213 190 224 272 171 169 166 109 200 356 107 150 157 142 136 141 156
181 191 193 188 188 193 189 186 191 193 188 184 184 184 183 182 181 182 182 183 184 185 184 184 185 186 187 190 194 197 199 199 196 199 204 200 200 205 199 195 201 202 202 205 206 206 210 212 211 210 210 219 228 220 211 213 215 210 200 193 190 189 180 199 218 161 160 185 185 194 220 242 246 188 96 113 133 5 70 167 154 147 144 153 179
182 191 194 187 186 190 187 183 188 194 190 185 185 183 182 182 181 182 182 183 184 184 185 186 186 188 188 190 195 197 199 200 197 197 202 201 201 205 203 197 198 201 202 206 208 207 209 212 210 210 211 212 221 229 218 210 212 202 193 188 186 189 184 194 212 176 178 180 168 191 223 155 190 242 111 114 80 48 220 270 151 150 147 157 201
184 191 193 187 187 193 191 180 181 197 199 190 186 183 180 180 180 182 183 183 184 184 184 186 187 189 190 192 194 196 197 198 197 197 199 204 205 205 205 200 195 198 202 205 208 208 208 210 209 209 211 208 211 221 217 210 211 203 196 191 187 189 188 193 196 188 201 182 166 183 211 196 187 231 234 154 114 47 261 246 185 170 156 163 203
184 190 191 185 187 193 191 178 178 197 205 195 188 184 180 180 180 182 184 183 184 184 184 186 188 190 192 193 195 196 196 196 196 196 196 202 207 204 205 203 195 195 200 204 207 207 208 209 209 208 209 209 209 213 212 209 209 206 203 196 193 193 189 190 192 195 209 180 168 179 196 203 191 214 226 182 170 176 209 241 199 177 160 161 180
179 183 185 181 184 182 177 176 180 196 205 196 191 186 181 181 181 182 184 184 184 185 185 187 189 191 193 194 196 196 197 198 198 197 195 199 205 204 204 205 202 197 198 203 205 205 206 207 208 209 209 210 211 212 210 208 208 208 206 199 196 195 189 187 186 192 205 201 190 183 189 207 207 209 223 211 199 182 180 251 226 137 130 151 168
178 178 181 182 184 177 173 179 183 196 203 195 192 188 182 182 181 181 184 184 185 186 186 188 189 192 193 194 196 197 198 201 200 200 198 198 202 203 203 204 204 201 199 202 204 203 205 206 206 207 209 210 210 211 210 207 207 208 207 201 197 196 191 189 185 184 197 208 210 192 187 209 212 207 223 225 207 169 163 273 232 178 157 151 165
179 177 180 181 183 183 184 186 188 197 200 193 191 189 184 183 182 182 184 184 185 186 187 189 190 193 193 193 196 198 200 203 203 203 202 200 201 203 204 204 204 204 203 204 204 203 205 208 208 206 208 210 209 210 211 208 206 206 206 201 199 200 195 194 190 185 193 205 216 211 195 208 214 205 217 231 213 175 180 225 220 247 233 160 165
177 175 174 176 180 184 188 194 196 197 198 195 193 189 184 183 182 182 183 184 185 186 187 190 191 193 194 195 196 198 200 203 205 205 204 202 202 203 205 206 206 206 207 207 205 203 205 207 209 208 207 208 208 209 210 208 205 204 203 201 201 201 196 196 193 188 196 203 213 223 217 219 219 204 203 224 227 191 186 207 204 206 253 160 154
178 180 181 183 184 186 189 196 199 198 199 197 194 190 186 184 183 183 183 183 185 186 187 190 191 192 195 196 197 197 199 202 205 206 206 205 204 204 206 207 208 208 209 209 205 204 205 204 206 208 207 207 208 208 207 205 205 204 203 201 201 200 197 198 196 192 199 204 208 220 226 229 227 214 205 212 227 213 189 199 201 195 209 182 148
175 177 181 182 180 184 188 191 197 200 202 199 195 192 187 184 184 183 183 183 184 186 188 189 190 192 194 196 197 198 199 201 204 205 206 207 207 207 208 208 209 210 209 208 207 207 205 203 204 205 206 206 207 208 206 204 204 204 204 204 202 201 200 200 199 198 200 206 209 213 222 231 233 228 218 207 214 218 194 190 197 201 207 210 175
170 167 171 175 175 179 187 191 197 202 202 199 195 193 188 185 183 182 182 183 184 185 187 189 190 191 193 196 197 198 200 201 203 205 206 207 208 208 209 209 210 210 209 207 206 207 207 205 204 202 205 206 205 207 207 205 205 204 205 208 206 202 202 203 202 202 204 207 211 211 216 227 232 229 222 213 209 213 207 194 195 202 209 218 221
170 164 167 175 175 176 185 192 200 203 201 198 195 192 190 187 185 183 183 183 184 185 186 189 189 189 192 195 197 199 200 201 203 205 206 206 208 208 208 209 210 210 211 209 205 205 206 206 205 203 204 205 205 206 208 206 205 205 205 209 210 204 202 205 204 204 208 210 213 214 214 220 225 220 216 218 215 211 208 204 201 206 209 216 226
179 172 167 173 177 180 185 189 200 207 201 196 196 194 193 190 187 187 186 184 185 186 187 188 188 189 192 195 197 199 200 202 203 203 204 206 207 207 208 209 209 209 210 209 206 204 204 205 205 204 204 204 205 205 207 206 205 206 207 207 210 207 203 205 206 204 208 211 214 218 216 215 217 218 215 214 215 211 205 205 206 210 212 214 221
182 176 168 175 181 181 179 177 191 213 206 195 195 195 194 193 190 189 188 186 186 187 187 189 190 192 193 194 196 198 199 200 201 202 204 206 207 207 207 208 208 209 209 209 209 206 204 204 204 204 204 204 205 204 205 206 205 207 209 208 209 209 206 206 206 205 207 210 214 218 220 216 212 214 216 211 212 213 206 206 208 211 214 214 216
180 170 163 173 180 175 168 163 179 213 212 198 196 195 194 195 193 192 191 189 189 189 188 190 192 193 194 195 195 197 199 199 199 201 204 205 206 207 207 207 207 209 209 209 210 208 206 204 203 205 205 204 205 205 204 206 207 207 207 208 209 209 207 206 207 207 208 209 212 216 220 218 212 212 215 212 211 212 207 206 210 212 214 214 214
175 167 164 169 174 172 168 168 184 207 209 198 196 196 194 196 195 193 193 192 192 191 190 191 192 194 194 195 196 197 198 198 197 200 202 203 205 206 207 207 207 209 209 209 210 208 206 205 205 205 206 206 206 206 206 206 208 209 208 207 208 209 209 208 208 209 209 208 211 214 216 217 213 211 213 213 211 211 209 207 209 212 214 214 215
178 170 162 157 159 165 170 177 190 201 199 194 196 197 195 196 196 195 195 194 193 192 191 191 193 194 194 195 196 195 195 196 197 199 201 202 203 205 206 207 208 208 208 209 209 208 207 206 206 206 206 207 207 207 207 207 208 210 210 209 208 208 209 210 209 210 210 209 210 212 214 214 213 213 213 213 212 212 211 209 208 211 213 213 215
179 158 139 144 153 162 172 181 189 193 192 192 196 198 196 197 197 196 196 195 194 193 192 191 191 193 194 195 196 195 195 196 197 199 201 202 202 203 203 205 206 207 208 207 208 208 207 206 206 207 207 208 208 208 208 208 209 211 212 211 210 209 209 210 211 211 211 211 211 212 212 211 211 212 213 213 213 213 213 212 210 211 212 212 213
163 147 141 154 163 167 175 180 181 188 193 192 194 199 200 199 199 198 197 195 194 194 192 191 191 193 195 195 195 196 197 197 198 200 202 203 203 203 203 203 204 206 208 207 207 207 207 208 208 208 209 209 209 209 209 209 210 211 212 212 212 211 211 212 213 213 213 213 213 213 213 211 211 211 212 214 214 214 214 214 212 212 212 211 211
148 152 157 164 168 171 176 179 179 186 194 193 194 199 201 200 200 200 199 196 195 195 193 192 192 193 195 195 196 197 199 199 200 202 203 204 204 204 204 203 203 205 207 207 206 206 207 209 209 209 210 210 209 210 210 210 210 211 212 212 212 212 212 212 214 214 215 216 215 215 215 213 213 212 213 214 215 214 215 215 214 212 210 209 210
131 129 139 152 169 171 170 176 179 185 194 196 196 200 202 201 200 200 201 199 196 195 194 192 192 194 195 196 197 198 200 202 203 204 204 204 205 206 206 205 204 204 207 208 208 206 206 208 210 210 210 211 210 209 210 210 210 211 212 212 212 212 212 213 214 215 216 217 218 218 217 217 217 216 215 215 215 214 213 215 215 213 211 209 208
136 117 120 144 179 175 164 174 179 183 192 197 198 198 200 201 200 200 202 202 197 195 195 193 193 196 197 197 198 199 200 203 203 204 204 205 206 207 207 207 206 205 207 210 211 210 207 207 209 210 210 211 212 211 210 210 210 210 212 213 212 213 213 213 213 215 216 217 218 218 219 219 219 219 219 218 217 217 214 214 214 212 211 210 208
135 128 129 148 174 172 165 176 184 187 193 198 199 197 197 200 200 200 203 203 198 193 194 196 196 197 197 197 198 200 201 202 203 204 205 205 206 207 208 208 208 207 208 210 212 214 212 208 207 209 210 211 213 213 212 211 210 210 211 213 213 214 214 214 214 214 215 216 217 218 220 220 219 220 220 220 220 220 218 216 214 212 211 209 208
143 148 149 157 167 166 171 180 189 198 200 199 200 198 198 201 202 201 202 203 200 193 192 198 199 196 196 196 198 200 201 201 203 204 204 205 206 207 208 209 209 209 209 209 210 213 215 212 208 208 210 211 213 215 214 213 212 212 211 212 214 214 214 216 216 215 215 216 217 218 220 221 220 219 220 220 221 221 220 219 217 215 214 212 209
152 155 152 163 175 175 182 190 194 202 207 205 202 200 201 203 203 202 202 203 204 197 192 196 198 194 195 197 198 199 201 202 203 204 204 205 205 206 208 209 209 210 210 209 210 211 215 216 212 208 209 212 215 216 216 214 214 213 213 212 214 215 215 216 217 218 218 218 218 219 221 222 221 221 221 220 220 222 222 220 217 217 218 217 215
148 149 154 173 182 176 180 190 191 194 203 208 206 203 205 207 204 202 201 203 206 203 194 192 195 194 194 196 197 199 201 203 203 204 204 204 205 206 208 209 209 209 209 209 210 211 213 216 216 212 210 213 216 216 216 216 215 215 214 213 213 215 216 218 219 220 220 220 220 220 221 222 223 223 222 221 220 220 222 221 218 217 219 220 220
141 150 156 158 144 146 165 181 185 191 195 201 207 206 205 209 209 205 203 204 206 207 199 191 192 195 193 193 196 198 202 204 204 204 204 204 205 207 208 209 208 208 209 210 211 211 212 214 217 217 214 214 216 217 217 217 216 216 216 215 214 215 217 219 221 221 221 222 222 221 221 222 223 223 223 221 220 219 220 220 218 217 218 220 221
302 1 61 66 75 97 127 119 153 200 189 186 196 204 203 206 209 208 208 206 205 208 205 193 191 194 193 191 194 197 201 204 204 203 203 204 205 207 207 207 208 209 210 211 211 212 213 214 216 218 219 219 218 218 218 218 218 218 217 216 216 216 218 220 222 222 222 223 223 223 223 223 223 223 223 221 219 218 218 218 217 217 218 220 221
213 97 79 64 59 52 42 44 15 320 217 184 189 196 200 205 207 207 209 208 204 206 209 199 191 192 192 191 193 195 199 202 204 203 204 205 206 206 206 206 208 210 212 213 213 214 215 216 216 218 222 224 222 220 220 220 220 220 218 217 217 217 219 221 222 222 223 224 225 225 225 226 225 224 224 224 220 216 216 216 216 216 218 219 222
74 80 75 61 50 40 30 22 331 290 270 240 211 199 196 199 204 206 205 207 207 206 208 205 196 192 193 192 192 194 197 200 202 203 205 206 206 206 205 206 207 210 213 213 215 216 217 218 218 218 221 225 226 224 223 223 222 220 218 217 217 218 221 224 224 223 223 224 225 226 225 226 227 226 226 226 222 216 214 215 215 216 216 218 222
55 65 65 54 39 18 359 336 294 267 261 264 259 236 207 192 195 203 203 204 210 209 207 207 201 194 193 193 193 195 197 199 202 204 207 207 207 207 206 206 208 212 215 215 216 218 219 220 221 221 222 226 228 228 229 228 226 222 219 218 217 217 221 226 227 226 226 226 227 227 226 226 227 227 226 227 223 216 213 214 216 216 216 217 221
49 51 47 37 15 337 314 293 274 268 266 254 251 259 251 206 192 199 201 203 209 210 207 207 205 199 195 194 195 195 197 200 202 204 206 206 206 207 208 208 211 213 216 217 217 219 221 222 223 224 226 228 229 230 233 233 231 227 222 219 217 217 221 226 228 228 230 230 230 230 228 227 228 228 226 226 225 219 214 214 216 216 215 218 221
37 39 30 11 351 330 311 303 325 348 314 279 254 253 262 255 219 206 205 205 207 209 207 206 206 201 196 195 197 197 199 201 203 204 205 206 206 207 208 209 211 213 216 218 218 220 222 224 225 227 228 230 231 231 233 236 236 233 227 220 216 217 221 225 227 229 231 234 234 234 232 230 230 228 227 227 226 222 218 216 217 216 216 219 220
14 20 24 8 357 355 335 327 1 10 340 306 291 279 270 269 259 232 219 213 206 205 204 202 201 200 197 195 197 199 200 201 203 204 206 207 207 207 207 208 208 210 214 217 218 221 224 225 226 227 229 231 231 230 232 234 236 236 232 224 219 219 223 226 228 230 232 235 237 237 237 237 234 231 228 226 227 225 221 218 218 220 222 223 221
357 9 32 18 355 353 346 346 5 4 353 339 316 301 288 274 272 261 239 227 211 201 199 197 197 197 195 193 196 199 200 201 203 204 205 207 207 206 206 206 207 209 212 215 217 220 224 227 227 227 228 230 231 231 232 234 235 237 236 230 225 225 226 226 230 233 235 238 240 240 242 243 242 237 231 227 228 228 223 219 220 224 226 225 221
349 11 31 11 346 354 358 360 9 360 347 344 333 319 304 278 283 290 259 245 227 201 194 191 191 193 192 191 193 195 196 199 204 205 204 205 204 204 205 205 206 209 211 213 214 216 220 226 230 230 231 232 233 234 234 235 237 238 238 236 232 230 228 226 229 233 236 239 241 242 243 245 246 244 238 231 230 229 226 222 222 223 224 222 219
347 10 25 2 341 359 5 357 3 0 346 338 330 319 301 274 321 328 276 260 267 200 187 184 185 188 188 187 188 191 194 199 204 205 204 204 202 201 204 205 204 207 210 212 213 213 217 224 229 232 234 235 237 239 239 239 239 238 237 236 235 233 230 228 229 233 237 240 242 243 245 246 247 248 245 238 233 231 230 227 224 222 221 219 216
348 7 17 356 333 350 8 356 353 359 0 348 336 330 341 39 25 14 349 296 300 204 179 176 178 182 185 182 180 184 191 198 203 204 201 200 198 198 202 204 202 203 209 213 214 213 215 221 228 234 238 239 240 246 247 244 241 239 238 237 237 236 233 230 230 232 236 239 242 244 246 247 249 251 250 243 237 234 232 230 226 222 219 217 215
352 1 2 344 330 345 4 2 2 8 10 1 358 12 32 30 13 13 19 349 316 207 166 164 166 173 180 182 181 186 194 201 207 207 199 196 199 201 202 201 200 201 207 214 218 219 219 221 225 232 237 239 241 248 257 259 250 242 239 237 236 236 235 234 233 234 237 239 241 243 245 246 248 252 254 249 243 237 233 230 227 223 219 217 217
356 358 352 344 343 350 353 4 17 15 6 1 9 19 21 15 354 334 351 347 330 148 153 159 162 168 180 189 192 196 202 206 207 206 199 195 198 202 200 197 197 200 205 210 215 218 221 222 225 229 231 231 232 238 254 284 291 247 243 242 239 238 237 236 235 235 236 238 239 241 244 245 247 250 253 253 249 242 234 228 224 221 218 218 218
350 354 351 351 356 2 8 18 25 14 358 358 8 10 9 10 5 356 350 287 202 175 165 172 179 183 187 194 200 203 204 201 198 199 198 191 193 201 200 194 198 205 207 208 212 217 223 226 229 233 230 221 214 209 78 40 44 38 328 271 261 255 250 247 245 243 242 243 244 246 249 250 250 250 250 248 243 236 230 226 221 218 217 218 218
332 335 340 350 357 7 20 27 24 13 10 15 16 11 11 10 7 3 0 359 183 184 180 178 189 195 184 182 192 198 198 190 175 155 129 132 165 187 178 159 156 175 189 194 196 197 197 184 152 98 74 80 74 55 30 356 337 336 337 307 272 269 264 260 260 259 256 255 255 255 256 256 254 248 245 242 236 230 227 226 222 219 218 218 217
331 326 329 349 3 13 28 43 40 25 28 32 24 17 16 11 7 4 3 14 75 162 174 170 179 187 172 174 185 189 193 191 168 142 118 101 100 114 126 122 115 116 125 133 131 120 110 106 101 88 75 74 66 38 1 339 327 320 318 311 286 266 259 258 259 261 262 260 255 250 248 248 245 241 239 239 237 232 228 226 224 222 220 219 217
324 327 342 2 12 22 31 40 40 28 35 39 28 19 12 6 8 17 18 34 53 58 79 102 89 78 104 126 157 173 184 191 152 141 132 112 99 96 97 101 103 105 104 103 100 97 95 99 100 92 82 74 58 20 342 336 338 334 331 329 322 309 296 283 270 262 261 259 252 247 244 242 237 234 235 236 235 232 228 225 224 223 222 221 219
Height
735 739 742 744 748 752 756 759 763 766 769 773 775 778 781 783 786 788 791 795 797 800 803 805 807 809 811 813 814 816 818 819 820 821 823 824 825 825 827 829 830 832 833 834 836 837 839 840 840 841 842 843 843 844 844 845 846 846 846 847 847 847 847 847 848 848 848 849 850 851 851 851 852 852 852 852 853 854 855 856 857 857 859 860 861
734 737 739 742 746 749 754 757 761 764 767 770 773 776 779 781 784 786 789 792 795 798 801 803 805 806 808 810 812 814 816 817 819 820 822 823 824 825 825 828 830 831 832 833 835 836 837 839 839 840 841 842 842 843 844 844 845 846 846 846 846 847 847 847 847 847 848 849 849 850 851 851 852 851 852 852 853 854 854 855 856 857 858 859 860
735 736 737 739 743 747 752 755 758 761 764 768 772 775 778 780 782 785 787 790 793 796 798 800 803 805 807 809 811 812 814 816 818 819 821 822 823 824 825 827 829 830 831 832 834 835 836 838 838 839 840 841 842 842 843 844 844 845 846 846 846 846 846 846 847 846 847 848 848 850 851 852 853 852 850 851 852 852 853 854 856 856 858 859 860
734 735 735 737 740 744 748 751 755 759 762 766 769 772 775 777 780 782 785 788 791 793 796 799 801 804 806 808 809 811 812 814 816 818 819 820 822 823 824 826 828 829 830 831 832 834 835 836 837 838 839 840 841 841 842 843 844 844 845 845 845 845 846 846 846 846 847 847 847 850 849 852 857 854 850 849 850 851 851 853 855 856 858 859 860
731 733 733 734 736 739 743 748 752 756 759 762 765 768 771 774 777 780 783 785 788 791 794 797 800 802 804 807 808 809 811 812 814 816 817 819 820 821 823 824 826 828 829 830 831 832 834 835 836 837 837 838 839 840 841 842 843 843 843 844 844 845 845 845 846 846 847 846 847 849 850 854 856 852 850 850 849 850 851 852 854 856 857 859 860
726 729 730 731 733 736 740 745 749 752 755 758 762 765 768 771 774 777 780 783 786 789 792 795 797 800 802 804 805 806 808 809 811 813 814 816 818 819 821 823 825 826 828 829 830 831 832 833 835 836 836 837 838 839 840 841 841 841 842 843 844 844 844 845 845 845 846 846 847 848 849 852 851 849 852 852 851 850 850 852 854 855 857 859 860
722 725 726 727 730 732 735 740 744 748 751 755 759 762 766 768 771 775 777 780 784 786 789 792 795 797 799 801 803 804 805 806 808 811 813 814 816 818 819 821 823 825 826 827 828 830 831 832 833 834 835 836 837 838 838 839 840 840 841 842 842 843 843 844 844 845 845 846 847 847 847 848 848 849 851 853 854 853 850 852 854 854 856 858 859
719 723 723 724 726 727 729 733 739 744 749 753 756 759 763 765 768 772 774 777 781 784 787 790 792 795 797 799 801 802 803 805 807 809 811 812 814 816 817 819 821 822 824 825 827 828 829 830 831 833 834 835 835 836 837 838 839 839 840 841 841 842 842 843 843 844 845 845 846 847 848 848 848 848 849 850 853 855 853 852 853 854 855 856 858
713 717 718 719 721 723 725 730 737 744 748 750 752 755 759 762 766 769 772 774 777 781 784 787 790 792 795 797 798 800 802 804 805 807 809 811 812 814 815 816 818 820 822 823 825 826 827 829 830 831 832 833 834 834 835 837 838 838 839 839 840 841 841 842 843 843 844 845 845 846 847 848 848 849 849 849 850 854 855 852 852 853 854 856 857
708 711 714 716 719 723 727 731 737 744 748 750 751 753 756 760 763 766 768 771 774 777 780 784 787 790 792 794 796 798 800 802 804 805 807 809 810 812 813 814 815 817 820 821 823 824 826 827 828 830 831 832 833 834 835 836 836 837 838 838 839 839 840 841 842 843 843 844 845 846 847 848 848 848 849 849 850 852 854 852 851 852 853 855 856
705 708 710 714 719 725 729 730 734 740 746 750 751 751 754 756 759 762 765 768 771 774 777 780 784 786 789 791 793 796 797 799 801 802 804 806 807 809 811 812 813 814 817 819 820 822 823 825 826 828 829 830 831 832 833 834 835 836 837 837 838 839 839 840 841 842 843 844 845 846 847 847 848 848 848 849 850 851 852 852 851 851 852 854 855
701 706 708 711 717 722 725 727 730 735 741 746 748 749 750 752 755 758 762 764 767 770 774 777 780 783 785 788 790 793 795 797 798 800 801 803 805 806 808 810 811 812 814 816 818 819 821 823 824 826 827 828 829 830 831 833 833 834 835 836 837 838 838 839 840 841 842 844 845 845 846 847 848 848 848 849 849 850 851 851 850 850 851 853 854
695 701 705 708 713 716 720 724 727 731 735 740 743 744 746 748 750 753 757 760 763 766 770 773 776 779 781 784 787 790 792 794 795 797 798 800 802 804 805 807 809 810 811 813 815 817 818 820 822 823 825 826 827 829 830 831 832 833 834 835 836 837 838 838 839 840 841 843 844 845 846 847 847 847 848 848 849 849 850 850 850 850 851 852 854
690 694 699 703 707 711 715 720 723 727 730 734 738 739 741 743 745 748 752 755 759 762 765 769 772 775 778 781 784 786 789 791 792 794 796 797 799 801 803 804 805 807 808 810 812 814 816 817 819 821 822 824 825 827 828 829 830 831 832 834 835 836 837 837 838 839 841 842 843 844 845 846 846 846 847 847 847 848 849 850 850 850 850 851 852
686 688 694 697 701 705 710 715 718 722 726 730 733 735 736 738 740 743 746 750 754 758 761 765 768 771 774 777 780 783 785 787 789 791 793 794 796 798 800 801 802 804 806 808 809 812 813 814 816 818 820 821 823 825 826 827 829 830 831 832 833 834 835 836 837 838 840 841 842 843 843 844 845 845 846 846 846 847 848 849 849 850 851 852 851
683 686 690 693 696 699 703 709 714 719 724 728 730 731 731 733 735 737 740 744 749 753 757 760 764 767 770 773 776 779 782 784 786 788 790 791 793 795 797 798 800 801 803 805 807 809 811 812 814 815 818 819 821 822 824 825 827 828 829 830 832 833 834 835 836 837 838 840 841 842 842 842 843 844 845 845 845 845 846 847 848 849 851 853 853
677 681 685 690 693 695 698 704 711 717 720 722 724 725 726 728 731 734 737 740 744 747 751 755 759 763 766 769 773 775 778 780 782 784 786 788 790 792 794 796 797 799 801 802 805 807 808 810 811 813 815 817 819 820 821 823 824 826 827 828 830 831 832 833 834 835 837 838 839 840 841 841 841 842 843 843 844 845 845 846 846 847 848 850 852
668 673 678 684 688 693 696 701 709 714 715 716 718 721 723 726 728 731 734 736 739 742 746 750 753 757 761 764 768 771 773 776 778 781 783 785 787 789 791 793 794 797 798 800 802 804 806 808 809 811 813 815 816 818 819 821 822 824 825 826 828 829 830 831 833 834 835 836 837 838 839 839 840 841 842 842 842 843 844 844 845 846 847 847 848
663 668 674 678 683 689 693 698 705 711 712 713 717 720 722 725 726 728 730 731 735 738 741 745 748 752 755 758 762 765 768 771 774 777 779 781 783 785 788 790 791 794 796 797 799 801 803 805 807 808 810 812 814 815 817 819 820 822 823 825 826 827 828 829 830 832 833 835 835 837 837 837 839 839 840 841 841 841 842 843 844 845 846 846 846
660 664 670 674 677 682 686 691 701 708 709 710 714 717 719 722 724 726 728 730 733 736 738 742 745 747 750 753 757 760 764 767 770 773 776 777 780 782 784 786 788 791 793 795 796 798 800 802 804 806 807 809 811 813 814 816 818 820 821 822 823 824 826 827 828 829 831 832 833 835 835 835 837 837 838 839 839 840 841 842 843 844 844 845 845
656 659 664 669 672 675 678 685 699 709 708 706 709 712 714 718 720 722 725 727 730 733 735 738 741 744 746 749 753 756 759 763 766 769 771 773 776 778 781 783 785 788 790 792 793 795 797 799 801 803 805 806 808 810 812 813 815 817 818 820 821 822 823 824 826 827 828 830 831 832 833 833 834 835 836 837 837 838 839 840 841 842 842 843 844
651 653 659 665 668 671 675 680 692 703 704 702 705 706 709 713 715 718 721 723 726 728 731 734 736 740 743 746 749 752 755 759 762 765 767 769 772 775 777 780 782 784 786 788 790 792 794 796 797 800 802 803 805 807 809 810 812 814 815 817 819 819 821 822 823 824 825 827 828 829 831 832 832 833 834 834 835 835 836 837 839 839 840 841 842
645 649 655 660 664 667 672 677 684 693 696 697 700 701 703 707 710 713 716 718 721 724 727 730 733 736 739 742 745 748 751 755 757 760 763 765 768 771 774 776 778 781 783 785 787 788 790 792 794 796 798 800 802 803 805 807 808 810 812 813 815 816 818 819 820 821 822 824 825 826 827 829 830 830 831 832 833 833 834 834 836 837 838 839 840
642 646 650 655 661 664 669 674 679 684 688 691 694 696 698 702 704 707 710 713 717 720 723 726 729 733 736 738 741 744 747 750 753 756 758 761 764 767 770 772 775 777 779 781 783 785 787 789 791 793 794 796 798 799 801 803 804 806 808 809 811 812 814 815 816 818 819 820 821 822 823 825 827 827 828 829 830 831 831 832 833 834 835 836 837
642 645 649 654 660 663 667 671 674 678 682 685 690 692 694 696 699 701 705 709 713 716 719 722 725 729 732 734 737 740 742 745 748 751 754 757 760 763 766 768 771 773 775 777 780 782 783 785 786 788 790 792 794 795 797 799 800 802 804 805 807 808 810 811 812 814 815 816 818 818 819 821 823 824 825 826 827 828 829 829 830 831 832 833 834
643 646 650 655 658 661 664 666 670 674 678 682 686 689 691 693 695 698 701 705 708 711 714 717 721 724 727 730 733 736 739 742 744 747 750 753 757 759 762 764 766 769 771 773 775 777 779 780 782 784 786 787 789 791 793 795 797 799 800 802 803 805 806 807 809 810 812 813 814 815 816 817 818 819 821 822 824 825 826 827 827 828 829 831 832
643 646 651 654 658 659 660 662 666 669 673 678 682 685 687 689 692 695 698 701 704 707 710 713 716 719 722 726 728 731 735 738 740 743 747 750 753 755 757 759 762 764 767 769 770 772 774 776 777 779 782 783 785 787 789 791 793 795 797 799 800 801 802 804 805 807 808 809 810 812 813 814 815 816 817 819 820 822 823 824 824 825 827 828 828
645 648 651 655 658 658 658 661 662 665 671 674 678 681 683 686 689 692 695 697 700 703 705 708 712 714 717 720 723 726 729 733 736 739 742 745 748 751 753 755 758 760 762 764 766 767 769 771 773 775 777 780 781 783 785 787 789 791 793 795 796 798 799 800 802 803 805 806 807 809 810 810 811 812 814 815 816 817 819 820 821 822 823 824 825
649 651 652 655 658 658 659 661 661 664 668 670 674 677 679 683 686 688 691 693 696 699 702 705 707 709 712 715 718 722 724 728 731 734 738 740 743 746 748 751 753 755 758 760 762 764 765 767 769 771 773 775 777 778 779 781 784 787 789 791 792 794 795 797 798 800 801 802 804 805 806 806 807 808 810 811 812 813 814 815 816 818 820 820 821
652 654 654 656 659 659 659 661 661 663 665 668 670 672 675 679 681 684 687 689 691 695 698 700 702 704 708 712 715 718 720 723 727 729 732 735 738 742 744 747 749 751 753 756 758 760 762 763 765 767 769 770 772 772 774 776 778 781 784 787 788 790 792 793 794 795 797 798 799 800 801 802 803 804 805 806 808 808 809 809 811 813 814 816 817
653 654 655 656 658 659 660 661 661 662 663 665 667 669 672 675 677 679 682 685 687 690 692 695 698 701 706 709 711 714 717 719 722 725 728 731 734 737 739 742 744 747 749 751 754 756 757 759 760 762 764 765 766 767 769 771 773 776 779 781 784 785 787 789 790 790 791 793 794 795 796 798 798 798 799 800 802 804 804 805 807 808 809 811 812
651 653 655 657 658 659 660 660 660 661 662 664 666 668 670 671 673 676 678 681 683 684 686 690 694 698 702 705 708 710 713 716 718 721 723 726 730 732 735 738 739 742 745 747 749 751 753 755 756 757 758 760 760 762 764 766 768 770 773 776 778 781 782 783 784 785 786 787 789 790 791 792 792 792 793 795 796 798 800 801 803 804 806 807 808
649 650 653 655 653 654 657 657 657 659 661 663 664 666 667 668 670 673 675 677 678 680 683 686 690 694 696 700 704 707 709 712 714 717 720 723 726 728 730 733 735 738 741 742 744 746 748 750 751 752 753 754 756 758 759 761 763 765 768 770 773 775 776 778 779 780 781 782 783 785 786 786 787 788 789 790 791 793 795 797 799 801 802 803 804
647 647 648 648 648 650 653 654 655 657 658 661 662 664 666 667 669 670 671 673 675 677 679 681 685 688 691 695 700 703 706 709 711 714 717 719 722 723 726 729 732 734 736 737 739 741 743 745 746 747 748 749 751 753 754 756 757 759 762 765 767 769 770 771 772 774 776 777 778 779 780 780 782 783 783 785 786 788 791 793 795 797 797 798 800
648 648 648 648 648 650 651 651 653 654 654 657 660 662 664 666 667 668 669 670 672 674 676 678 680 684 687 691 695 698 702 706 708 712 714 716 718 719 722 726 728 730 731 732 735 736 738 740 742 743 745 745 745 747 749 750 752 754 757 760 762 764 764 765 766 768 770 771 772 773 773 774 776 777 778 779 780 783 786 788 789 790 792 793 794
647 648 650 649 649 651 651 652 654 653 653 654 657 659 662 663 664 666 666 668 670 672 674 675 677 679 683 687 690 695 698 702 705 708 710 712 714 716 719 722 724 726 728 729 731 733 734 736 738 740 741 741 741 742 743 745 747 750 753 755 757 759 760 760 761 762 764 765 767 768 768 770 771 772 773 773 775 778 781 783 784 785 786 788 789
644 646 648 650 651 652 654 655 655 656 655 654 654 656 657 659 662 663 664 666 668 669 670 672 674 677 680 683 687 691 694 698 701 704 706 708 710 713 716 718 721 723 724 726 727 729 731 732 734 735 736 736 737 738 739 740 742 745 749 751 753 755 756 756 756 758 759 759 760 761 762 764 766 767 768 768 770 773 776 778 779 780 782 783 784
646 647 648 652 655 655 656 657 657 657 656 655 654 654 654 656 658 660 662 664 664 666 667 669 672 674 677 680 684 687 691 694 697 699 702 705 708 710 713 715 718 719 720 722 724 726 728 729 729 730 731 732 733 735 736 738 739 742 744 746 748 751 752 752 752 754 754 754 754 755 756 758 759 760 762 764 766 769 771 774 775 777 779 780 779
650 652 653 656 657 657 657 657 656 656 656 655 655 654 653 654 655 656 659 660 660 662 664 667 671 673 676 679 682 684 687 690 693 696 699 702 705 708 710 713 715 716 718 720 722 723 724 725 726 727 728 729 731 733 734 735 736 739 740 742 745 747 747 747 749 751 751 751 750 751 751 752 752 755 758 760 762 765 767 769 771 774 775 774 774
654 656 658 657 657 657 657 656 655 656 656 655 654 654 653 653 653 654 655 655 657 660 663 666 670 672 675 677 679 682 685 687 691 694 697 700 702 705 708 710 712 714 716 718 719 720 722 723 724 725 726 727 728 730 732 733 734 735 736 738 741 742 741 743 746 748 748 747 747 747 747 747 748 751 754 756 758 761 762 765 767 768 767 767 768
658 658 659 658 657 657 657 656 655 655 655 654 654 654 653 653 653 653 652 653 655 658 661 664 667 670 673 675 678 681 683 686 690 693 696 698 700 702 705 707 710 712 713 715 717 718 719 720 721 723 723 724 725 727 728 729 730 731 733 735 737 737 738 741 744 745 745 744 744 744 745 746 746 748 750 752 753 755 756 759 761 760 760 762 765
659 658 659 659 659 658 657 656 656 656 656 655 654 653 653 652 652 652 652 653 654 656 658 661 664 668 670 673 676 680 683 686 689 692 694 696 698 700 702 705 707 709 710 712 714 715 716 717 718 719 720 720 722 724 725 725 726 728 730 732 733 734 736 740 741 742 742 741 741 742 743 744 744 745 747 748 748 749 751 753 753 753 756 759 761
659 659 661 661 661 659 659 658 658 658 658 656 655 654 653 652 652 652 652 653 654 654 656 658 661 665 668 671 674 678 681 685 688 690 692 693 695 698 700 702 704 706 708 709 710 712 713 714 715 716 717 718 719 721 721 722 723 725 727 729 730 732 734 736 737 737 737 737 737 738 739 740 741 742 744 744 744 745 746 746 747 750 752 755 758
661 661 662 663 662 661 661 661 661 660 660 659 657 655 653 653 653 653 653 654 654 655 656 657 660 663 666 669 672 676 680 683 686 688 690 691 693 695 697 699 701 703 705 706 707 709 710 711 712 713 714 716 717 718 719 719 720 721 723 725 726 728 730 731 731 731 731 732 732 734 735 737 738 738 739 740 741 741 742 742 745 748 751 753 755
664 663 665 665 663 662 662 663 662 661 661 660 658 656 655 655 655 655 654 655 655 656 657 658 660 662 665 668 671 674 678 681 684 686 687 689 691 693 695 697 698 700 702 703 705 707 708 709 711 712 713 714 715 716 717 716 716 717 718 719 721 722 723 724 724 725 726 726 728 730 733 734 735 735 736 736 736 736 737 739 743 746 748 749 749
667 666 667 667 665 663 663 663 663 662 662 661 659 658 657 658 658 657 657 657 657 657 658 659 661 663 666 668 671 674 677 679 682 684 685 687 689 691 693 695 696 698 700 702 703 705 706 708 709 710 711 712 713 715 715 714 714 714 714 715 716 716 718 719 719 720 721 722 724 728 729 730 731 731 732 732 732 732 733 736 739 741 743 744 745
670 670 670 668 666 666 665 665 665 665 664 663 662 660 660 660 659 659 659 659 658 659 659 661 662 664 667 669 671 673 675 677 679 681 683 685 687 689 691 693 694 696 698 700 701 703 704 706 707 708 709 709 710 712 713 713 713 713 713 714 714 715 716 717 717 717 717 719 721 723 724 725 726 726 727 727 728 728 729 730 732 733 734 735 734
672 672 671 669 668 668 667 667 667 667 666 665 664 663 663 662 661 661 660 660 660 660 661 662 664 665 667 669 670 672 674 676 678 680 681 682 684 686 688 690 692 694 695 697 699 701 702 703 704 705 706 706 708 710 711 711 712 713 714 714 715 715 716 717 717 717 716 717 719 721 722 722 722 722 722 722 721 719 718 718 719 719 719 718 718
673 672 671 670 670 669 668 669 669 668 668 667 666 666 665 663 663 662 661 661 661 661 662 663 664 665 666 668 670 672 673 674 677 679 681 681 683 684 686 687 690 691 693 694 696 698 700 701 702 703 704 705 707 708 709 710 711 712 713 714 714 715 715 715 716 716 716 716 718 720 720 720 719 718 716 714 712 711 710 710 710 709 708 709 710
673 673 672 671 671 670 670 670 670 670 670 669 668 668 667 666 665 665 664 663 662 662 663 663 664 665 666 667 669 671 672 673 675 677 679 681 683 684 685 687 689 691 692 693 695 697 699 700 701 703 704 705 707 708 709 710 710 710 711 712 713 713 713 713 713 713 713 713 714 714 714 714 714 712 710 708 707 707 706 705 704 704 704 704 704
674 673 672 672 672 672 671 671 671 671 671 671 670 670 669 668 666 665 665 664 663 663 664 664 665 665 666 666 668 669 671 673 674 675 677 680 682 685 687 689 690 691 692 694 695 697 698 699 700 702 703 705 706 707 708 708 708 708 708 708 709 710 710 710 710 709 709 709 709 708 707 706 706 704 702 700 699 699 698 698 698 699 699 699 699